Sitka, AK

9:04 AM AKDT on June 29, 2017 (GMT -0800)
Sitka Rocky Gutierrez

Weather History for PASI - September, 2012

Change the Weather History Date:

Saturday, September 8, 2012

  Actual Average Record
Temperature  
Mean Temperature 52 °F -  
Max Temperature 55 °F 58 °F 69 °F (1989)
Min Temperature 48 °F 48 °F 39 °F (1952)
Degree Days  
Heating Degree Days 14    
Growing Degree Days 2 (Base 50)    
Moisture  
Dew Point 53 °F    
Average Humidity 99    
Maximum Humidity 100    
Minimum Humidity 93    
Precipitation  
Precipitation 1.43 in - - ()
Sea Level Pressure  
Sea Level Pressure 29.69 in    
Wind  
Wind Speed 6 mph (SSE)    
Max Wind Speed 17 mph    
Max Gust Speed 22 mph    
Visibility 5 miles    
Events Rain    
Averages and records for this station are not official NWS values.
T = Trace of Precipitation, MM = Missing Value Source: NWS Daily Summary

Daily Weather History Graph

Daily Weather History Graph

Search for Another Location

Airport or City:

Trip Planner

Search our weather history database for the weather conditions in past years. The results will help you decide how hot, cold, wet, or windy it might be!

Date:

Astronomy

Sep. 08, 2012 Rise Set
Actual Time 6:19 AM AKDT 7:37 PM AKDT
Civil Twilight 5:39 AM AKDT 8:16 PM AKDT
Nautical Twilight 4:50 AM AKDT 9:04 PM AKDT
Astronomical Twilight 3:55 AM AKDT 9:59 PM AKDT
Moon 11:00 PM AKDT (9/8) 3:36 PM AKDT (9/8)
Length of Visible Light 14h 36m
Length of Day
13h 17m
Waning Gibbous, 47% of the Moon is Illuminated
Sep 8
Waning Gibbous
Sep 15
New
Sep 22
First Quarter
Sep 29
Full
Oct 7
Last Quarter

Hourly Weather History & Observations

Time (AKDT) Temp. Dew Point Humidity Pressure Visibility Wind Dir Wind Speed Gust Speed Precip Events Conditions
12:53 AM 53.1 °F 52.0 °F 96% 30.04 in 10.0 mi South 5.8 mph - 0.00 in   Overcast
1:53 AM 53.1 °F 52.0 °F 96% 30.02 in 10.0 mi SE 3.5 mph - N/A   Overcast
2:45 AM 51.8 °F 51.8 °F 100% 30.01 in 10.0 mi East 3.5 mph - N/A   Overcast
2:53 AM 52.0 °F 52.0 °F 100% 30.01 in 10.0 mi East 3.5 mph - N/A   Overcast
3:53 AM 52.0 °F 52.0 °F 100% 29.99 in 10.0 mi East 3.5 mph - N/A   Overcast
4:53 AM 52.0 °F 52.0 °F 100% 29.97 in 10.0 mi Calm Calm - N/A   Overcast
5:53 AM 51.1 °F 51.1 °F 100% 29.95 in 10.0 mi Calm Calm - 0.00 in Rain Light Rain
6:53 AM 51.1 °F 51.1 °F 100% 29.92 in 9.0 mi East 4.6 mph - 0.01 in   Overcast
7:18 AM 51.8 °F 51.8 °F 100% 29.91 in 7.0 mi East 4.6 mph - N/A   Overcast
7:53 AM 51.1 °F 51.1 °F 100% 29.89 in 10.0 mi East 3.5 mph - N/A   Overcast
8:53 AM 52.0 °F 51.1 °F 97% 29.85 in 10.0 mi Calm Calm - 0.00 in Rain Light Rain
9:11 AM 51.8 °F 51.8 °F 100% 29.85 in 3.0 mi Calm Calm - 0.03 in Rain Rain
9:53 AM 51.1 °F 51.1 °F 100% 29.83 in 5.0 mi NNW 5.8 mph - 0.09 in Rain Rain
10:53 AM 51.1 °F 51.1 °F 100% 29.79 in 3.0 mi ESE 4.6 mph - 0.15 in Rain Rain
11:22 AM 51.8 °F 51.8 °F 100% 29.77 in 1.8 mi SSE 8.1 mph - 0.11 in Rain Heavy Rain
11:38 AM 51.8 °F 51.8 °F 100% 29.75 in 3.0 mi ESE 8.1 mph - 0.17 in Rain Light Rain
11:53 AM 52.0 °F 52.0 °F 100% 29.75 in 5.0 mi ESE 8.1 mph - 0.19 in Rain Light Rain
12:35 PM 51.8 °F 51.8 °F 100% 29.71 in 6.0 mi Calm Calm - 0.04 in Rain Light Rain
12:53 PM 52.0 °F 52.0 °F 100% 29.70 in 9.0 mi NW 6.9 mph - 0.05 in Rain Light Rain
1:14 PM 53.6 °F 53.6 °F 100% 29.69 in 10.0 mi SE 5.8 mph - 0.01 in Rain Light Rain
1:53 PM 55.0 °F 55.0 °F 100% 29.68 in 3.0 mi East 3.5 mph - 0.03 in Rain Light Rain
2:42 PM 53.6 °F 53.6 °F 100% 29.64 in 3.0 mi SE 6.9 mph - 0.05 in Rain Light Rain
2:53 PM 55.0 °F 55.0 °F 100% 29.63 in 3.0 mi Calm Calm - 0.06 in Rain Light Rain
3:08 PM 55.4 °F 55.4 °F 100% 29.62 in 1.8 mi SSE 6.9 mph - 0.02 in Rain Rain
3:45 PM 55.4 °F 55.4 °F 100% 29.60 in 2.0 mi Variable 5.8 mph - 0.16 in Rain Rain
3:53 PM 55.0 °F 55.0 °F 100% 29.60 in 2.0 mi SE 8.1 mph - 0.19 in Rain Rain
4:03 PM 55.4 °F 55.4 °F 100% 29.59 in 2.5 mi Variable 3.5 mph - 0.03 in Rain Rain
4:09 PM 55.4 °F 55.4 °F 100% 29.58 in 2.5 mi ESE 8.1 mph - 0.03 in Rain Light Rain
4:18 PM 55.4 °F 55.4 °F 100% 29.58 in 1.0 mi SE 8.1 mph - 0.08 in Rain Heavy Rain
4:37 PM 55.4 °F 55.4 °F 100% 29.57 in 2.0 mi South 11.5 mph - 0.14 in Rain Rain
4:51 PM 55.4 °F 55.4 °F 100% 29.56 in 2.0 mi South 13.8 mph 21.9 mph 0.16 in Rain Light Rain
4:53 PM 55.9 °F 55.9 °F 100% 29.57 in 2.0 mi South 15.0 mph 21.9 mph 0.16 in Rain Light Rain
5:53 PM 54.0 °F 54.0 °F 100% 29.55 in 2.0 mi South 10.4 mph 19.6 mph 0.11 in Rain Light Rain
6:01 PM 53.6 °F 53.6 °F 100% 29.55 in 3.0 mi South 11.5 mph - 0.00 in Rain Light Rain
6:09 PM 53.6 °F 53.6 °F 100% 29.55 in 2.5 mi South 11.5 mph - 0.00 in Rain Light Rain
6:19 PM 53.6 °F 53.6 °F 100% 29.54 in 1.0 mi South 12.7 mph - 0.01 in Rain Light Rain
6:39 PM 53.6 °F 53.6 °F 100% 29.55 in 2.0 mi SSW 9.2 mph - 0.03 in Rain Light Rain
6:43 PM 53.6 °F 53.6 °F 100% 29.55 in 3.0 mi SSW 10.4 mph - 0.03 in Rain Light Rain
6:53 PM 53.1 °F 53.1 °F 100% 29.55 in 4.0 mi WSW 8.1 mph - 0.04 in Rain Light Rain
7:49 PM 53.6 °F 51.8 °F 94% 29.56 in 10.0 mi West 4.6 mph - 0.00 in Rain Light Rain
7:53 PM 53.1 °F 51.1 °F 93% 29.55 in 10.0 mi WSW 4.6 mph - 0.00 in Rain Light Rain
8:53 PM 51.1 °F 51.1 °F 100% 29.53 in 8.0 mi SE 5.8 mph - 0.04 in Rain Light Rain
9:04 PM 51.8 °F 51.8 °F 100% 29.52 in 7.0 mi ESE 4.6 mph - 0.02 in Rain Rain
9:53 PM 51.1 °F 51.1 °F 100% 29.52 in 5.0 mi Calm Calm - 0.09 in Rain Rain
10:08 PM 51.8 °F 51.8 °F 100% 29.52 in 2.5 mi WSW 9.2 mph - 0.09 in Rain Heavy Rain
10:11 PM 51.8 °F 51.8 °F 100% 29.52 in 1.8 mi WSW 13.8 mph 17.3 mph 0.13 in Rain Heavy Rain
10:19 PM 50.0 °F 50.0 °F 100% 29.52 in 3.0 mi WSW 17.3 mph 21.9 mph 0.15 in Rain Rain
10:53 PM 48.9 °F 48.0 °F 97% 29.53 in 8.0 mi SW 12.7 mph - 0.19 in Rain Light Rain
11:41 PM 48.2 °F 48.2 °F 100% 29.52 in 10.0 mi SSW 4.6 mph - 0.02 in Rain Light Rain
11:53 PM 48.9 °F 48.0 °F 97% 29.52 in 10.0 mi South 6.9 mph - 0.03 in Rain Light Rain